User: anonymous   Login
Location: Unspecified
(0.0000°N, 0.0000°E)
Time: 06:10:21
(UTC+00:00)
Language:

UFO 11 (USA 174) - Orbit

View from above orbital plane
View from above orbital plane
View from above satellite
View from above satellite

Ground track
Ground track

The orbit data is extracted from the following two-line orbital elements,

1 28117U 03057A   17283.83752454 0.00000000  00000-0  00000-0 0    06
2 28117   5.0878  35.7586 0005706 290.2435  69.7003  1.00270000    01
Epoch (UTC): 10 October 2017 20:06:02
Eccentricity: 0.0005706
inclination: 5.0878°
perigee height: 35762 km
apogee height: 35811 km
right ascension of ascending node: 35.7586°
argument of perigee: 290.2435°
revolutions per day: 1.00270000
mean anomaly at epoch: 69.7003°
orbit number at epoch: 0

The dashed part of the orbit path shows where the satellite is in the earth's shadow,  

DLR